Location: Sunny Point
(33.0946°N, 85.0574°W)
Time: 23:36:29
(UTC+00:00)

X-37B - Visible Passes

Search period start: 26 November 2022 00:00
Search period end: 06 December 2022 00:00
Orbit: 277 x 277 km, 45.0° (Epoch: 01 November)

Date Brightness Start Highest point End Pass type
(mag) Time Alt. Az. Time Alt. Az. Time Alt. Az.
26 Nov 3.3 10:26:42 15° E 10:26:42 15° E 10:27:20 10° ESE visible
27 Nov 3.3 10:27:43 14° SE 10:27:43 14° SE 10:28:09 10° SE visible
04 Dec 1.6 23:27:35 10° SSW 23:29:32 21° SE 23:30:16 18° ESE visible
05 Dec 0.2 23:27:45 10° SW 23:30:08 50° SE 23:31:11 26° E visible
